Weather Roundup
Issued by NWS Springfield, MO

Home | Current Version | Previous Version | Text Only | Print | Product List | Glossary On
Versions: 1 2 3 4 5 6 7 8 9 10 11 12 13 14 15 16 17 18 19 20 21 22 23 24 25 26 27 28 29 30 31 32 33 34 35 36 37 38 39 40 41 42 43 44 45 46 47 48 49 50
000
NZUS99 KSGF 191307
HRRSGF

HOURLY WEATHER
NATIONAL WEATHER SERVICE SPRINGFIELD MO
700 AM CST FRI DEC 19 2014

......SGF CWA......

CITY           SKY/WX    TMP DP  RH WIND       PRES   REMARKS
SPRINGFIELD    CLOUDY    37  35  92 SE6       30.21R WCI  32
JOPLIN         FOG       36  35  96 N3        30.24R VSB 3/4
WEST PLAINS    FOG       34  33  96 E5        30.24R VSB 3/4 WCI  30
ROLLA          FOG       32  31  96 E6        30.23R VSB 1/2 WCI  26
OSAGE BEACH    CLOUDY    34  32  93 E5        30.25R VSB 3/4 WCI  30
BRANSON        FOG       37  36  93 CALM      30.22R VSB 1/4

......SURROUNDING SGF CWA......

CITY           SKY/WX    TMP DP  RH WIND       PRES   REMARKS
CHANUTE        CLOUDY    33  32  96 NE7       30.24R FOG     WCI  27
PARSONS        CLOUDY    35  34  96 CALM      30.27R FOG
COFFEYVILLE    CLOUDY    36  33  89 CALM      30.26R
EMPORIA        CLOUDY    28  27  96 N6        30.23R WCI  22
GROVE OK       FOG       39  39 100 CALM      30.24R VSB 1
ROGERS AR      CLOUDY    38  37  97 NE3       30.21R
SILOAM SPRINGS CLOUDY    39  34  81 N3        30.22R VSB 1/2
HARRISON AR    CLOUDY    37  36  96 E5        30.21R FOG     WCI  33
NEAR YELLVILLE CLOUDY    37  34  87 E5        30.23S WCI  34

......KANSAS AND MISSOURI......

CITY           SKY/WX    TMP DP  RH WIND       PRES   REMARKS
KANSAS CTY INT CLOUDY    30  29  96 CALM      30.24S FOG
DOWNTOWN KC    CLOUDY    33  30  88 NE6       30.26R FOG     WCI  28
COLUMBIA       CLOUDY    32  30  92 E5        30.26R WCI  27
SEDALIA        CLOUDY    33  32  96 E5        30.27R FOG     WCI  29
ST JOSEPH      CLOUDY    30  28  92 CALM      30.26S
ST LOUIS       MOCLDY    32  26  78 E8        30.30R WCI  25
SPIRIT OF STL  CLOUDY    32  28  85 E6        30.29R WCI  26
KIRKSVILLE     CLOUDY    29  27  92 NE3       30.27S
WICHITA        CLOUDY    32  28  85 E5        30.22R WCI  27
TOPEKA         CLOUDY    30  28  92 W3        30.25S
OLATHE         CLOUDY    31  29  92 VRB5      30.23R WCI  26

......TENNESSEE......

CITY           SKY/WX    TMP DP  RH WIND       PRES   REMARKS
MEMPHIS        CLOUDY    42  35  76 NE8       30.24R
NASHVILLE      CLOUDY    35  29  78 NE10      30.26R WCI  27

......ARKANSAS.......

CITY           SKY/WX    TMP DP  RH WIND       PRES   REMARKS
FAYETTEVILLE   CLOUDY    40  40 100 CALM      30.21R FOG
FT SMITH       CLOUDY    41  38  89 NE8       30.23R
LITTLE ROCK    CLOUDY    42  37  82 NE5       30.25R

......OKLAHOMA.......

CITY           SKY/WX    TMP DP  RH WIND       PRES   REMARKS
TULSA          CLOUDY    37  36  96 N6        30.26R FOG     WCI  32
PONCA CITY     CLOUDY    35  31  85 N3        30.25R
MCALESTER      CLOUDY    43  40  89 CALM      30.23R
OKLAHOMA CITY  DRZL/FOG  39  37  92 NE7       30.21S VSB 1/2 WCI  34

......IOWA............

CITY           SKY/WX    TMP DP  RH WIND       PRES   REMARKS
DES MOINES     LGT SNOW  29  25  85 SE5       30.27R FOG     WCI  24
QUAD CITIES    CLEAR     16  12  84 CALM      30.32R

......ILLINOIS........

CITY           SKY/WX    TMP DP  RH WIND       PRES   REMARKS
QUINCY         CLOUDY    28  23  81 NE5       30.29R WCI  23
CHICAGO        CLOUDY    28  22  78 N8        30.29R WCI  20




USA.gov is the U.S. government's official web portal to all federal, state and local government web resources and services.